OBJECT E, 49047

Orbit data source: Space-Track

You're viewing an Uncataloged Satellite

Recently launched and/or uncataloged satellites may have evolving metadata. Metadata may include but not limited to: Owner, Maufacturer, Bus, Motor, and Mission.

OBJECT E, 49047 is a satellite owned by CASC (CN) in SSO that was launched on Sun, 04 Jul 2021 UTC launched from the Jiuquan Satellite Launch Center, China (JSC). Unknown objects in Earth's orbit typically refer to objects detected orbiting the Earth but have not yet been identified or cataloged. These objects could be anything from previously untracked satellites, spent rocket stages, debris from satellite collisions, or even natural meteoroids temporarily captured by Earth's gravity.

Loading next visibility...
Identifier
49047, 2021-062E
Orbit
SSO
Country
Flag of CNCN / PRC
Related business
Manufacturer
CALT
Mission
Spacecraft
Bus & Motor
Unknown
Mass
1 kg wet, 1 kg dry
Launch date (UTC)
2021-07-04 (5 years ago)
Launch vehicle
Unknown
Launch site
Jiuquan Satellite Launch Center, China (JSC)
Object type
Unknown
Shape & HBR
Box, 0.1 m
Radar Cross Section
0.060 m², Small (<0.1 m²)

Expand to show TLE details & history
Last TLE update: 2 days ago

TLE from 2 days ago
0 OBJECT E
1 49047U 21062E   26171.30050693  .00000066  00000-0  44535-4 0  9995
2 49047  98.6613 190.6812 0006115  63.2567 296.9239 14.27866792256249
Epoch: 2026-06-20T07:12Z
TLE epoch observation values (Epoch: 2026-06-20T07:12:43.798Z)
Latitude
-0.00005°
Longitude
173.98161°
Altitude
799.811 km
Speed
7.455 km/s
True Right ascension
12h 42m 43s
True Declination
0° 00' 00"
Sunlit
Object was in daylight at epoch
Visualization orbit readout
Latitude
Unknown
Longitude
Unknown
Altitude
Unknown
Speed
Unknown
Apparent Right ascension
Unknown
Apparent Declination
Unknown
Sunlit
N/A
Visualization observer readout
Local Sidereal Time
21:35:22
Azimuth
Unknown
Elevation
Unknown
Doppler factor
Unknown
Orbital elements
Apogee altitude
800.403 km
Perigee altitude
791.629 km
Semi-major axis
7,174.153 km
Eccentricity
0.00061
Inclination
98.6613°
RAAN
190.6812°
Arg. of periapsis
63.2567°
True anomaly
296.8614°
Mean anomaly
296.9239°
Eccentric anomaly
296.89265°
Mean motion
3.5718 °/min
Orbital period
100.79 mins
BSTAR
0.000044535
Loading maneuver chart data...
Computing Atmospheric mass density...
Loading historical data...
Loading historical data...
Loading historical data...
Loading historical data...
Loading historical data...
Loading historical data...
Loading historical data...
Other satellites on launch #62 in the year 2021 (2021-07-04 UTC)

Documentation

Showing up to 5 results
|